Other Public Products
Issued by NWS Grand Forks, ND

Home | Current Version | Previous Version | Text Only | Print | Product List | Glossary Off
Versions: 1 2 3 4 5 6 7 8 9 10 11 12 13 14 15 16 17 18 19 20 21 22 23 24 25 26 27 28 29 30 31 32 33 34 35 36 37 38 39 40 41 42 43 44 45 46 47 48 49 50

000
FPUS83 KFGF 171231
OPUFGF
PRAIRIE TO PINES WEATHER ROUNDUP
NATIONAL WEATHER SERVICE EASTERN NORTH DAKOTA/GRAND FORKS ND
700 AM CDT TUE OCT 17 2017

 **SATELLITE DATA USED TO AUGMENT SKY COVER AT AUTOMATED STATIONS**
 *****  WEATHER ACROSS EASTERN NORTH DAKOTA  *****

CITY           SKY/WX    TMP DP  RH WIND       PRES   REMARKS
GRAND FORKS    FAIR      35  32  88 S7        29.89S
6HR MIN TEMP:  34; 6HR MAX TEMP:  44;

GRAND FORKS AF FAIR      41  34  77 SW7       29.88F
GRAND CITY NWS NOT AVBL
BUXTON           N/A     39  35  86 S6          N/A
DEVILS LAKE    FAIR      44  35  70 S7        29.87F
6HR MIN TEMP:  38; 6HR MAX TEMP:  47;

FARGO          FAIR      40  35  83 S6        29.94S
6HR MIN TEMP:  37; 6HR MAX TEMP:  45;

WAHPETON ARPT  NOT AVBL
$$

 *****  WEATHER ACROSS CENTRAL AND WESTERN NORTH DAKOTA  *****

CITY           SKY/WX    TMP DP  RH WIND       PRES   REMARKS
JAMESTOWN      FAIR      35  30  82 S6        29.93S
6HR MIN TEMP:  33; 6HR MAX TEMP:  45;

BISMARCK       FAIR      34  31  88 E5        29.93F
6HR MIN TEMP:  31; 6HR MAX TEMP:  40;

MINOT          FAIR      49  32  52 SW12      29.81F
6HR MIN TEMP:  46; 6HR MAX TEMP:  53;

MINOT AFB      FAIR      49  32  53 W13       29.79F
6HR MIN TEMP:  47; 6HR MAX TEMP:  52;

GARRISON         N/A     43  36  76 VRB3      29.86F
6HR MIN TEMP:  39; 6HR MAX TEMP:  46;

WILLISTON      FAIR      43  32  65 SW10      29.85F
6HR MIN TEMP:  36; 6HR MAX TEMP:  45;

DICKINSON      FAIR      46  27  47 W12       29.91S
6HR MIN TEMP:  39; 6HR MAX TEMP:  51;

HETTINGER      FAIR      36  25  64 NW5       29.99S
6HR MIN TEMP:  27; 6HR MAX TEMP:  40;

$$

 *****  OTHER OBSERVATIONS NORTHEAST NORTH DAKOTA  *****

CITY           SKY/WX    TMP DP  RH WIND       PRES   REMARKS
WALHALLA       FAIR     N/A N/A N/A SE7       29.82F
LANGDON        FAIR      41  37  87 S9        29.84F
CAVALIER       FAIR      41  34  75 S5        29.84S
GRAFTON        FAIR      36  34  93 S8        29.88F
CANDO          FAIR      34  34 100 S7        29.85F
FORT TOTTEN      N/A     41  32  70 S7        29.95S
ROLLA          FAIR      41  32  70 SW8       29.82S
RUGBY          FAIR      43  34  70 S9        29.82S
 ***** THE ABOVE OBSERVATIONS ARE NON NWS ARE NOT QUALITY
        CONTROLLED AND MAY MIS-REPORT RAIN FOR SNOW...
$$

 *****  OTHER OBSERVATIONS SOUTHEAST NORTH DAKOTA *****

CITY           SKY/WX    TMP DP  RH WIND       PRES   REMARKS
COOPERSTOWN    FAIR      34  32  93 S6        29.92S
VALLEY CITY    FAIR      34  34 100 S6        29.95F
OAKES          NOT AVBL
GWINNER          N/A     36  34  93 SW9       29.97S
SHEYENNE NWR     N/A     35  35  98 W3        29.95S
BUFFALO          N/A     42  32  70 SW6         N/A
WYNDMERE       NOT AVBL
 ***** THE ABOVE OBSERVATIONS ARE NON NWS ARE NOT QUALITY
       CONTROLLED AND MAY MIS-REPORT RAIN FOR SNOW...
$$

  *****  WEATHER ACROSS NORTHERN MINNESOTA  *****

CITY           SKY/WX    TMP DP  RH WIND       PRES   REMARKS
FLAG ISLAND    FAIR      43  39  87 S3        29.86R
WARROAD        FAIR      39  36  87 S5        29.88S
ROSEAU           N/A     37  34  87 S5        29.88R
HALLOCK        FAIR      36  30  80 S8        29.87S
THF RVR FALLS  FAIR      39  33  79 S7        29.92S
6HR MIN TEMP:  35; 6HR MAX TEMP:  47;

HALSTAD          N/A     34  30  86 S6          N/A
FOSSTON        FAIR      34  32  93 S8        29.94R
BAUDETTE       FAIR      38  34  85 S3        29.89S
6HR MIN TEMP:  33; 6HR MAX TEMP:  49;

WASKISH        FAIR      34  34 100 CALM      29.92S
CROOKSTON      FAIR      34  30  86 S7        29.92F
$$
  *****  WEATHER ACROSS CENTRAL AND WEST MINNESOTA  *****

CITY           SKY/WX    TMP DP  RH WIND       PRES   REMARKS
BEMIDJI        FAIR      35  33  90 S3        29.94S
6HR MIN TEMP:  32; 6HR MAX TEMP:  44;

PARK RAPIDS    FAIR      36  33  89 CALM      29.95S
6HR MIN TEMP:  33; 6HR MAX TEMP:  45;

WADENA         FAIR      36  36 100 CALM      29.97R
DETROIT LAKES  FAIR      41  37  87 CALM      29.97R
MOORHEAD       FAIR      37  34  87 SE5       29.96S
FERGUS FALLS   FAIR      39  39 100 SE5       29.99S
ELBOW LAKE     FAIR      38  38  99 E3        29.99S
6HR MIN TEMP:  36; 6HR MAX TEMP:  45;

MORRIS MN      FAIR      36  36 100 CALM      29.98S
STAPLES        FAIR      36  36 100 CALM      29.97S
WHEATON        FAIR      36  32  87 SE3       30.00R
$$
  *****  WEATHER ELSEWHERE ACROSS MINNESOTA  *****

CITY           SKY/WX    TMP DP  RH WIND       PRES   REMARKS
DULUTH         FAIR      43  37  79 NW5       29.95S
6HR MIN TEMP:  43; 6HR MAX TEMP:  48;

INTRNTL FALLS  FAIR      30  28  92 CALM      29.89F
6HR MIN TEMP:  30; 6HR MAX TEMP:  48;

ELY            FAIR      34  34 100 CALM      29.92F
CLOQUET        FAIR      39  36  87 NW6       29.96S
BRAINERD       FAIR      34  33  96 CALM      29.98R
6HR MIN TEMP:  33; 6HR MAX TEMP:  44;

HIBBING        FAIR      32  30  92 CALM      29.95R
6HR MIN TEMP:  29; 6HR MAX TEMP:  36;

ALEXANDRIA     FAIR      39  37  92 CALM      29.99F
6HR MIN TEMP:  38; 6HR MAX TEMP:  51;

SAINT CLOUD    FAIR      35  34  96 CALM      29.99S
6HR MIN TEMP:  34; 6HR MAX TEMP:  43;

MINNEAPOLIS    FAIR      49  41  74 SW3       30.01R
6HR MIN TEMP:  48; 6HR MAX TEMP:  56;

$$

  *****  WEATHER ACROSS SOUTH DAKOTA  *****

CITY           SKY/WX    TMP DP  RH WIND       PRES   REMARKS
SIOUX FALLS    FAIR      38  36  92 CALM      30.04R
6HR MIN TEMP:  36; 6HR MAX TEMP:  44;

BROOKINGS      FAIR      37  34  89 CALM      30.03R
WATERTOWN      FAIR      36  36 100 CALM      30.01R
6HR MIN TEMP:  35; 6HR MAX TEMP:  46;

HURON          FAIR      37  36  96 SE3       30.02R
6HR MIN TEMP:  36; 6HR MAX TEMP:  45;

SISSETON         N/A     44  37  76 SW5       29.96F
ABERDEEN       FAIR      31  30  96 CALM      30.00S
6HR MIN TEMP:  28; 6HR MAX TEMP:  38;

MITCHELL       FAIR      39  37  92 S5        30.03F
PIERRE         FAIR      43  34  70 SW8       30.02S
6HR MIN TEMP:  40; 6HR MAX TEMP:  49;

MOBRIDGE       FAIR      40  33  76 SE7       29.96F
RAPID CITY     FAIR      47  24  40 NW12      30.06S
6HR MIN TEMP:  39; 6HR MAX TEMP:  47;

$$

  *****  SOME WEATHER IN NEARBY STATES *****

CITY           SKY/WX    TMP DP  RH WIND       PRES   REMARKS
GLASGOW MT     FAIR      49  27  42 W7        29.85S
6HR MIN TEMP:  48; 6HR MAX TEMP:  57;

GREAT FALLS MT FAIR      55  21  26 SW14      29.96S
6HR MIN TEMP:  53; 6HR MAX TEMP:  58;

CHEYENNE WY    FAIR      45  12  26 SW15      30.26F
6HR MIN TEMP:  37; 6HR MAX TEMP:  49;

SCOTTSBLUFF NE FAIR      28  23  81 N6        30.17S WCI  22
6HR MIN TEMP:  27; 6HR MAX TEMP:  36;

OMAHA NE       FAIR      48  41  76 S9        30.11F
6HR MIN TEMP:  46; 6HR MAX TEMP:  52;

DES MOINES IA  FAIR      51  40  65 S7        30.14R
6HR MIN TEMP:  50; 6HR MAX TEMP:  56;

DAVENPORT IA   FAIR      50  40  68 SW10      30.20F
6HR MIN TEMP:  47; 6HR MAX TEMP:  54;

CHICAGO IL     FAIR      50  38  63 SW10      30.18F
6HR MIN TEMP:  49; 6HR MAX TEMP:  51;

EAU CLAIRE WI  FAIR      40  39  97 SW5       30.01R
6HR MIN TEMP:  39; 6HR MAX TEMP:  47;

LA CROSSE WI   FAIR      50  42  74 S6        30.05R
6HR MIN TEMP:  49; 6HR MAX TEMP:  55;

$$

  *****  SOME NATIONAL WEATHER *****

CITY           SKY/WX    TMP DP  RH WIND       PRES   REMA


USA.gov is the U.S. government's official web portal to all federal, state and local government web resources and services.